H1 CPF 2 NER 2022 2 25 9 056 01 glonass137 H2 1705501 9137 42939 2022 2 25 0 0 0 2022 2 28 23 45 0 900 1 1 0 0 0 1 H9 10 0 59635 0.00000 0 8976129.879 -15644909.069 -18027136.959 10 0 59635 900.00000 0 8949403.504 -13307864.394 -19827556.007 10 0 59635 1800.00000 0 9106897.686 -10777668.722 -21242590.051 10 0 59635 2700.00000 0 9467434.416 -8118149.406 -22244771.445 10 0 59635 3600.00000 0 10038129.430 -5396790.743 -22814662.408 10 0 59635 4500.00000 0 10813974.469 -2682143.363 -22941229.297 10 0 59635 5400.00000 0 11777946.188 -41198.373 -22622053.511 10 0 59635 6300.00000 0 12901637.427 2463165.227 -21863375.289 10 0 59635 7200.00000 0 14146384.604 4774554.407 -20679969.824 10 0 59635 8100.00000 0 15464844.200 6845159.555 -19094858.227 10 0 59635 9000.00000 0 16802952.484 8637489.330 -17138858.909 10 0 59635 9900.00000 0 18102186.432 10125671.812 -14849988.009 10 0 59635 10800.00000 0 19302031.124 11296269.053 -12272720.300 10 0 59635 11700.00000 0 20342550.123 12148572.387 -9457124.750 10 0 59635 12600.00000 0 21166950.804 12694367.495 -6457891.436 10 0 59635 13500.00000 0 21724036.715 12957180.526 -3333268.693 10 0 59635 14400.00000 0 21970443.678 12971038.276 -143931.161 10 0 59635 15300.00000 0 21872565.313 12778795.792 3048198.993 10 0 59635 16200.00000 0 21408086.683 12430102.971 6181154.614 10 0 59635 17100.00000 0 20567061.204 11979096.831 9194126.275 10 0 59635 18000.00000 0 19352485.193 11481917.502 12028641.549 10 0 59635 18900.00000 0 17780345.435 10994153.334 14629697.918 10 0 59635 19800.00000 0 15879137.276 10568323.249 16946827.422 10 0 59635 20700.00000 0 13688872.835 10251502.722 18935072.560 10 0 59635 21600.00000 0 11259620.122 10083193.533 20555854.948 10 0 59635 22500.00000 0 8649633.205 10093527.076 21777720.393 10 0 59635 23400.00000 0 5923150.533 10301876.869 22576946.427 10 0 59635 24300.00000 0 3147952.049 10715938.790 22938001.050 10 0 59635 25200.00000 0 392775.563 11331317.972 22853844.147 10 0 59635 26100.00000 0 -2275301.282 12131640.183 22326065.919 10 0 59635 27000.00000 0 -4793405.833 13089183.632 21364859.585 10 0 59635 27900.00000 0 -7105237.404 14166005.495 19988828.578 10 0 59635 28800.00000 0 -9163158.904 15315516.669 18224631.462 10 0 59635 29700.00000 0 -10929927.016 16484439.474 16106470.783 10 0 59635 30600.00000 0 -12379989.637 17615066.774 13675434.987 10 0 59635 31500.00000 0 -13500297.062 18647728.044 10978705.491 10 0 59635 32400.00000 0 -14290593.691 19523358.891 8068643.719 10 0 59635 33300.00000 0 -14763178.707 20186065.799 5001775.347 10 0 59635 34200.00000 0 -14942146.372 20585577.671 1837691.481 10 0 59635 35100.00000 0 -14862138.678 20679480.228 -1362111.797 10 0 59635 36000.00000 0 -14566663.671 20435138.190 -4535432.602 10 0 59635 36900.00000 0 -14106051.248 19831223.225 -7620577.158 10 0 59635 37800.00000 0 -13535133.618 18858782.254 -10557564.195 10 0 59635 38700.00000 0 -12910749.353 17521800.062 -13289295.760 10 0 59635 39600.00000 0 -12289177.303 15837231.646 -15762671.008 10 0 59635 40500.00000 0 -11723609.569 13834502.109 -17929620.909 10 0 59635 41400.00000 0 -11261770.859 11554494.305 -19748043.577 10 0 59635 42300.00000 0 -10943785.141 9048066.107 -21182621.995 10 0 59635 43200.00000 0 -10800379.861 6374158.700 -22205508.474 10 0 59635 44100.00000 0 -10851503.526 3597574.313 -22796862.959 10 0 59635 45000.00000 0 -11105414.896 786515.577 -22945235.112 10 0 59635 45900.00000 0 -11558282.044 -1990011.695 -22647783.266 10 0 59635 46800.00000 0 -12194308.099 -4664824.949 -21910326.359 10 0 59635 47700.00000 0 -12986378.305 -7175112.052 -20747228.144 10 0 59635 48600.00000 0 -13897201.195 -9464794.206 -19181116.060 10 0 59635 49500.00000 0 -14880895.897 -11486607.319 -17242440.180 10 0 59635 50400.00000 0 -15884958.887 -13203816.236 -14968880.752 10 0 59635 51300.00000 0 -16852527.495 -14591491.570 -12404615.615 10 0 59635 52200.00000 0 -17724844.923 -15637297.126 -9599461.529 10 0 59635 53100.00000 0 -18443822.952 -16341756.195 -6607906.030 10 0 59635 54000.00000 0 -18954594.273 -16717986.932 -3488048.536 10 0 59635 54900.00000 0 -19207946.713 -16790919.186 -300471.328 10 0 59635 55800.00000 0 -19162536.487 -16596026.870 2892937.428 10 0 59635 56700.00000 0 -18786786.858 -16177630.355 6030185.551 10 0 59635 57600.00000 0 -18060391.810 -15586841.331 9050380.061 10 0 59635 58500.00000 0 -16975360.943 -14879237.508 11894908.103 10 0 59635 59400.00000 0 -15536561.076 -14112365.782 14508572.605 10 0 59635 60300.00000 0 -13761731.142 -13343179.450 16840660.740 10 0 59635 61200.00000 0 -11680969.023 -12625517.640 18845924.598 10 0 59635 62100.00000 0 -9335710.936 -12007733.103 20485455.494 10 0 59635 63000.00000 0 -6777245.009 -11530568.072 21727435.445 10 0 59635 63900.00000 0 -4064820.057 -11225367.349 22547751.743 10 0 59635 64800.00000 0 -1263427.122 -11112703.564 22930463.227 10 0 59635 65700.00000 0 1558655.156 -11201472.260 22868109.608 10 0 59635 66600.00000 0 4332450.491 -11488494.858 22361857.986 10 0 59635 67500.00000 0 6990903.845 -11958646.379 21421483.725 10 0 59635 68400.00000 0 9471421.645 -12585502.925 20065185.716 10 0 59635 69300.00000 0 11718228.672 -13332482.200 18319239.133 10 0 59635 70200.00000 0 13684444.510 -14154429.691 16217491.722 10 0 59635 71100.00000 0 15333793.858 -14999584.321 13800712.637 10 0 59635 72000.00000 0 16641879.897 -15811841.250 11115805.774 10 0 59635 72900.00000 0 17596968.120 -16533216.727 8214902.250 10 0 59635 73800.00000 0 18200248.302 -17106411.055 5154349.229 10 0 59635 74700.00000 0 18465564.123 -17477361.239 1993614.657 10 0 59635 75600.00000 0 18418622.372 -17597674.998 -1205870.717 10 0 59635 76500.00000 0 18095715.701 -17426842.567 -4381911.175 10 0 59635 77400.00000 0 17542013.384 -16934131.909 -7472759.792 10 0 59635 78300.00000 0 16809493.048 -16100086.258 -10418323.887 10 0 59635 79200.00000 0 15954601.397 -14917559.683 -13161338.059 10 0 59635 80100.00000 0 15035743.489 -13392245.935 -15648481.323 10 0 59635 81000.00000 0 14110707.244 -11542677.301 -17831416.204 10 0 59635 81900.00000 0 13234132.377 -9399692.491 -19667729.405 10 0 59635 82800.00000 0 12455130.887 -7005395.106 -21121755.663 10 0 59635 83700.00000 0 11815159.570 -4411645.444 -22165269.058 10 0 59635 84600.00000 0 11346234.069 -1678147.939 -22778028.684 10 0 59635 85500.00000 0 11069559.491 1129786.611 -22948168.523 10 0 59636 0.00000 0 10994634.814 3943711.291 -22672424.482 10 0 59636 900.00000 0 11118868.345 6694645.220 -21956194.338 10 0 59636 1800.00000 0 11427720.044 9315696.330 -20813430.204 10 0 59636 2700.00000 0 11895364.157 11744601.577 -19266365.256 10 0 59636 3600.00000 0 12485844.115 13926076.051 -17345080.274 10 0 59636 4500.00000 0 13154670.720 15813875.615 -15086918.290 10 0 59636 5400.00000 0 13850796.098 17372487.895 -12535758.522 10 0 59636 6300.00000 0 14518880.080 18578382.175 -9741163.485 10 0 59636 7200.00000 0 15101753.258 19420766.981 -6757415.790 10 0 59636 8100.00000 0 15542972.611 19901824.846 -3642463.267 10 0 59636 9000.00000 0 15789361.631 20036415.547 -456792.927 10 0 59636 9900.00000 0 15793427.411 19851261.327 2737744.110 10 0 59636 10800.00000 0 15515552.340 19383649.454 5879133.732 10 0 59636 11700.00000 0 14925867.468 18679707.569 8906402.466 10 0 59636 12600.00000 0 14005728.068 17792325.233 11760799.964 10 0 59636 13500.00000 0 12748728.614 16778809.738 14386937.377 10 0 59636 14400.00000 0 11161213.736 15698375.268 16733859.585 10 0 59636 15300.00000 0 9262262.897 14609571.236 18756030.628 10 0 59636 16200.00000 0 7083148.455 13567757.927 20414213.650 10 0 59636 17100.00000 0 4666288.644 12622735.345 21676228.767 10 0 59636 18000.00000 0 2063738.099 11816624.518 22517574.652 10 0 59636 18900.00000 0 -664722.490 11182089.861 22921902.314 10 0 59636 19800.00000 0 -3453819.393 10740976.713 22881332.257 10 0 59636 20700.00000 0 -6235249.948 10503420.998 22396609.053 10 0 59636 21600.00000 0 -8940276.649 10467468.059 21477090.329 10 0 59636 22500.00000 0 -11502344.677 10619216.657 20140570.071 10 0 59636 23400.00000 0 -13859615.026 10933482.151 18412939.186 10 0 59636 24300.00000 0 -15957308.805 11374951.146 16327689.265 10 0 59636 25200.00000 0 -17749765.827 11899779.318 13925268.376 10 0 59636 26100.00000 0 -19202132.131 12457565.297 11252300.707 10 0 59636 27000.00000 0 -20291606.394 12993617.547 8360684.607 10 0 59636 27900.00000 0 -21008193.466 13451418.509 5306586.042 10 0 59636 28800.00000 0 -21354933.676 13775181.679 2149346.963 10 0 59636 29700.00000 0 -21347598.696 13912393.025 -1049670.139 10 0 59636 30600.00000 0 -21013867.145 13816228.561 -4228278.698 10 0 59636 31500.00000 0 -20392015.158 13447744.934 -7324681.649 10 0 59636 32400.00000 0 -19529177.703 12777749.329 -10278677.890 10 0 59636 33300.00000 0 -18479254.616 11788268.562 -13032837.485 10 0 59636 34200.00000 0 -17300550.326 10473554.174 -15533622.079 10 0 59636 35100.00000 0 -16053247.425 8840580.041 -17732428.318 10 0 59636 36000.00000 0 -14796821.043 6909010.416 -19586533.761 10 0 59636 36900.00000 0 -13587503.293 4710638.762 -21059926.840 10 0 59636 37800.00000 0 -12475904.606 2288319.937 -22124004.946 10 0 59636 38700.00000 0 -11504891.907 -305560.523 -22758127.470 10 0 59636 39600.00000 0 -10707812.481 -3011016.859 -22950013.438 10 0 59636 40500.00000 0 -10107137.641 -5762713.600 -22695976.538 10 0 59636 41400.00000 0 -9713582.482 -8492443.210 -22000993.363 10 0 59636 42300.00000 0 -9525737.992 -11131728.423 -20878603.830 10 0 59636 43200.00000 0 -9530230.187 -13614441.844 -19350645.908 10 0 59636 44100.00000 0 -9702398.842 -15879334.589 -17446829.779 10 0 59636 45000.00000 0 -10007466.611 -17872369.455 -15204159.633 10 0 59636 45900.00000 0 -10402148.730 -19548762.256 -12666214.184 10 0 59636 46800.00000 0 -10836634.947 -20874647.045 -9882299.625 10 0 59636 47700.00000 0 -11256859.668 -21828296.492 -6906491.439 10 0 59636 48600.00000 0 -11606964.122 -22400847.298 -3796583.575 10 0 59636 49500.00000 0 -11831846.159 -22596501.191 -612965.437 10 0 59636 50400.00000 0 -11879689.587 -22432193.971 2582551.296 10 0 59636 51300.00000 0 -11704365.804 -21936747.381 5727933.013 10 0 59636 52200.00000 0 -11267605.774 -21149540.302 8762128.219 10 0 59636 53100.00000 0 -10540850.186 -20118755.801 11626251.566 10 0 59636 54000.00000 0 -9506699.147 -18899278.359 14264724.908 10 0 59636 54900.00000 0 -8159899.600 -17550330.003 16626353.243 10 0 59636 55800.00000 0 -6507828.168 -16132944.911 18665314.852 10 0 59636 56700.00000 0 -4570448.124 -14707388.466 20342046.814 10 0 59636 57600.00000 0 -2379741.177 -13330628.844 21624009.215 10 0 59636 58500.00000 0 21363.390 -12053966.771 22486313.703 10 0 59636 59400.00000 0 2580518.884 -10920922.256 22912204.748 10 0 59636 60300.00000 0 5237888.350 -9965466.215 22893384.641 10 0 59636 61200.00000 0 7928389.816 -9210670.502 22430176.120 10 0 59636 62100.00000 0 10584167.660 -8667832.347 21531519.473 10 0 59636 63000.00000 0 13137188.638 -8336109.449 20214803.877 10 0 59636 63900.00000 0 15521855.604 -8202680.736 18505535.789 10 0 59636 64800.00000 0 17677531.156 -8243425.849 16436850.129 10 0 59636 65700.00000 0 19550866.782 -8424094.643 14048873.007 10 0 59636 66600.00000 0 21097840.784 -8701917.464 11387947.663 10 0 59636 67500.00000 0 22285420.223 -9027588.197 8505737.999 10 0 59636 68400.00000 0 23092777.534 -9347536.227 5458226.685 10 0 59636 69300.00000 0 23512010.901 -9606391.003 2304627.172 10 0 59636 70200.00000 0 23548338.312 -9749534.488 -893769.159 10 0 59636 71100.00000 0 23219757.294 -9725632.771 -4074787.999 10 0 59636 72000.00000 0 22556184.902 -9489038.866 -7176585.398 10 0 59636 72900.00000 0 21598114.548 -9001963.976 -10138855.114 10 0 59636 73800.00000 0 20394846.694 -8236324.266 -12904005.890 10 0 59636 74700.00000 0 19002368.454 -7175183.949 -15418285.063 10 0 59636 75600.00000 0 17480971.928 -5813732.610 -17632826.248 10 0 59636 76500.00000 0 15892711.910 -4159754.373 -19504600.470 10 0 59636 77400.00000 0 14298810.249 -2233568.144 -20997252.179 10 0 59636 78300.00000 0 12757116.037 -67440.346 -22081804.101 10 0 59636 79200.00000 0 11319728.129 2295506.249 -22737217.606 10 0 59636 80100.00000 0 10030879.455 4802842.832 -22950798.088 10 0 59636 81000.00000 0 8925171.201 7394780.145 -22718437.998 10 0 59636 81900.00000 0 8026230.124 10006429.107 -22044693.223 10 0 59636 82800.00000 0 7345844.366 12570282.943 -20942691.617 10 0 59636 83700.00000 0 6883612.973 15018818.280 -19433875.658 10 0 59636 84600.00000 0 6627122.759 17287107.597 -17547584.226 10 0 59636 85500.00000 0 6552644.097 19315334.826 -15320481.569 10 0 59637 0.00000 0 6626315.382 21051109.809 -12795844.617 10 0 59637 900.00000 0 6805765.493 22451486.591 -10022720.873 10 0 59637 1800.00000 0 7042105.019 23484599.543 -7054976.617 10 0 59637 2700.00000 0 7282201.657 24130852.733 -3950249.288 10 0 59637 3600.00000 0 7471143.058 24383610.971 -768827.773 10 0 59637 4500.00000 0 7554782.561 24249365.235 2427518.785 10 0 59637 5400.00000 0 7482259.660 23747366.032 5576740.484 10 0 59637 6300.00000 0 7208388.238 22908740.764 8617711.005 10 0 59637 7200.00000 0 6695811.104 21775132.690 11491413.139 10 0 59637 8100.00000 0 5916829.351 20396919.166 14142082.429 10 0 59637 9000.00000 0 4854828.682 18831084.243 16518286.799 10 0 59637 9900.00000 0 3505241.931 17138835.074 18573921.354 10 0 59637 10800.00000 0 1876006.369 15383062.028 20269099.455 10 0 59637 11700.00000 0 -12504.463 13625748.632 21570923.238 10 0 59637 12600.00000 0 -2128072.716 11925439.390 22454119.118 10 0 59637 13500.00000 0 -4427728.585 10334870.796 22901526.493 10 0 59637 14400.00000 0 -6859298.921 8898863.864 22904430.526 10 0 59637 15300.00000 0 -9363348.930 7652565.584 22462732.785 10 0 59637 16200.00000 0 -11875437.532 6620112.031 21584956.411 10 0 59637 17100.00000 0 -14328593.874 5813768.327 20288085.468 10 0 59637 18000.00000 0 -16655912.954 5233580.897 18597241.112 10 0 59637 18900.00000 0 -18793163.275 4867556.014 16545200.243 10 0 59637 19800.00000 0 -20681298.566 4692356.724 14171765.186 10 0 59637 20700.00000 0 -22268769.136 4674488.513 11522995.977 10 0 59637 21600.00000 0 -23513536.582 4771923.424 8650319.498 10 0 59637 22500.00000 0 -24384707.591 4936093.775 5609532.303 10 0 59637 23400.00000 0 -24863718.229 5114170.856 2459716.367 10 0 59637 24300.00000 0 -24945018.961 5251531.672 -737911.105 10 0 59637 25200.00000 0 -24636231.471 5294308.670 -3921191.170 10 0 59637 26100.00000 0 -23957770.666 5191913.642 -7028236.093 10 0 59637 27000.00000 0 -22941947.849 4899427.980 -9998637.560 10 0 59637 27900.00000 0 -21631593.014 4379757.031 -12774645.970 10 0 59637 28800.00000 0 -20078254.520 3605456.310 -15302297.190 10 0 59637 29700.00000 0 -18340052.263 2560151.306 -17532464.417 10 0 59637 30600.00000 0 -16479274.879 1239489.782 -19421814.449 10 0 59637 31500.00000 0 -14559822.199 -348414.562 -20933649.672 10 0 59637 32400.00000 0 -12644600.342 -2183066.803 -22038619.620 10 0 59637 33300.00000 0 -10792978.517 -4232201.347 -22715288.628 10 0 59637 34200.00000 0 -9058413.760 -6452893.636 -22950548.941 10 0 59637 35100.00000 0 -7486342.399 -8793127.429 -22739871.786 10 0 59637 36000.00000 0 -6112425.639 -11193753.055 -22087391.899 10 0 59637 36900.00000 0 -4961221.703 -13590755.651 -21005824.210 10 0 59637 37800.00000 0 -4045338.908 -15917739.530 -19516214.485 10 0 59637 38700.00000 0 -3365103.883 -18108525.792 -17647528.772 10 0 59637 39600.00000 0 -2908757.606 -20099755.381 -15436089.593 10 0 59637 40500.00000 0 -2653169.742 -21833389.546 -12924869.650 10 0 59637 41400.00000 0 -2565040.095 -23259003.827 -10162656.566 10 0 59637 42300.00000 0 -2602535.518 -24335780.042 -7203104.811 10 0 59637 43200.00000 0 -2717292.345 -25034113.434 -4103693.102 10 0 59637 44100.00000 0 -2856698.979 -25336768.084 -924607.578 10 0 59637 45000.00000 0 -2966361.529 -25239532.513 2272427.385 10 0 59637 45900.00000 0 -2992647.640 -24751348.458 5425347.832 10 0 59637 46800.00000 0 -2885200.403 -23893907.785 8472954.877 10 0 59637 47700.00000 0 -2599315.579 -22700734.824 11356101.696 10 0 59637 48600.00000 0 -2098081.175 -21215792.973 14018839.747 10 0 59637 49500.00000 0 -1354188.484 -19491674.165 16409502.042 10 0 59637 50400.00000 0 -351337.630 -17587447.193 18481702.568 10 0 59637 51300.00000 0 914822.338 -15566254.882 20195232.842 10 0 59637 52200.00000 0 2436259.214 -13492760.310 21516838.710 10 0 59637 53100.00000 0 4192648.533 -11430548.416 22420862.754 10 0 59637 54000.00000 0 6151987.014 -9439590.842 22889740.411 10 0 59637 54900.00000 0 8271704.281 -7573879.035 22914340.545 10 0 59637 55800.00000 0 10500227.777 -5879323.569 22494144.089 10 0 59637 56700.00000 0 12778937.055 -4392006.448 21637257.310 10 0 59637 57600.00000 0 15044427.302 -3136858.411 20360259.156 10 0 59637 58500.00000 0 17230988.916 -2126815.772 18687885.244 10 0 59637 59400.00000 0 19273200.724 -1362491.240 16652553.940 10 0 59637 60300.00000 0 21108529.444 -832371.841 14293742.992 10 0 59637 61200.00000 0 22679827.167 -513535.075 11657228.137 10 0 59637 62100.00000 0 23937622.704 -372852.581 8794197.806 10 0 59637 63000.00000 0 24842110.793 -368630.093 5760260.642 10 0 59637 63900.00000 0 25364755.509 -452613.911 2614365.002 10 0 59637 64800.00000 0 25489440.275 -572278.462 -582348.550 10 0 59637 65700.00000 0 25213115.805 -673297.433 -3767739.153 10 0 59637 66600.00000 0 24545918.368 -702093.054 -6879878.177 10 0 59637 67500.00000 0 23510753.228 -608354.646 -9858258.182 10 0 59637 68400.00000 0 22142360.636 -347418.779 -12644974.149 10 0 59637 69300.00000 0 20485903.711 117590.737 -15185853.281 10 0 59637 70200.00000 0 18595137.655 813954.530 -17431511.004 10 0 59637 71100.00000 0 16530237.337 1757958.509 -19338312.334 10 0 59637 72000.00000 0 14355374.532 2953963.792 -20869219.849 10 0 59637 72900.00000 0 12136146.396 4393985.896 -21994511.920 10 0 59637 73800.00000 0 9936962.635 6057801.810 -22692357.649 10 0 59637 74700.00000 0 7818500.410 7913581.261 -22949237.679 10 0 59637 75600.00000 0 5835332.724 9919016.609 -22760203.243 10 0 59637 76500.00000 0 4033828.537 12022904.880 -22128968.830 10 0 59637 77400.00000 0 2450411.352 14167116.469 -21067836.969 10 0 59637 78300.00000 0 1110247.795 16288869.008 -19597456.821 10 0 59637 79200.00000 0 26419.642 18323212.019 -17746421.284 10 0 59637 80100.00000 0 -800387.394 20205619.092 -15550710.393 10 0 59637 81000.00000 0 -1381666.576 21874579.741 -13052991.659 10 0 59637 81900.00000 0 -1740355.243 23274082.970 -10301790.749 10 0 59637 82800.00000 0 -1909614.271 24355888.891 -7350548.494 10 0 59637 83700.00000 0 -1931174.515 25081493.540 -4256582.487 10 0 59637 84600.00000 0 -1853320.989 25423704.755 -1079973.394 10 0 59637 85500.00000 0 -1728600.778 25367763.176 2117602.149 10 0 59638 0.00000 0 -1611352.313 24911961.576 5274068.997 10 0 59638 900.00000 0 -1555161.042 24067736.361 8328159.497 10 0 59638 1800.00000 0 -1610349.743 22859228.214 11220600.156 10 0 59638 2700.00000 0 -1821609.835 21322329.607 13895261.517 10 0 59638 3600.00000 0 -2225874.362 19503259.606 16300244.727 10 0 59638 4500.00000 0 -2850522.795 17456725.436 18388885.513 10 0 59638 5400.00000 0 -3711993.909 15243747.513 20120656.204 10 0 59638 6300.00000 0 -4814865.790 12929238.440 21461948.746 10 0 59638 7200.00000 0 -6151442.434 10579436.545 22386723.977 10 0 59638 8100.00000 0 -7701865.283 8259300.328 22877015.112 10 0 59638 9000.00000 0 -9434746.210 6029971.507 22923276.052 10 0 59638 9900.00000 0 -11308296.658 3946411.565 22524567.973 10 0 59638 10800.00000 0 -13271907.118 2055309.210 21688580.629 10 0 59638 11700.00000 0 -15268112.238 393344.976 20431487.681 10 0 59638 12600.00000 0 -17234860.700 -1014115.567 18777638.462 10 0 59638 13500.00000 0 -19107996.064 -2153846.342 16759091.507 10 0 59638 14400.00000 0 -20823845.731 -3025069.427 14414998.178 10 0 59638 15300.00000 0 -22321810.206 -3639235.604 11790847.638 10 0 59638 16200.00000 0 -23546844.472 -4019286.775 8937587.209 10 0 59638 17100.00000 0 -24451727.434 -4198431.951 5910634.693 10 0 59638 18000.00000 0 -24999023.853 -4218489.051 2768801.689 10 0 59638 18900.00000 0 -25162655.913 -4127863.238 -426851.129 10 0 59638 19800.00000 0 -24929017.764 -3979248.031 -3614204.291 10 0 59638 20700.00000 0 -24297585.598 -3827147.275 -6731291.571 10 0 59638 21600.00000 0 -23280997.042 -3725323.780 -9717509.661 10 0 59638 22500.00000 0 -21904596.122 -3724283.622 -12514801.276 10 0 59638 23400.00000 0 -20205462.641 -3868903.536 -15068787.955 10 0 59638 24300.00000 0 -18230966.588 -4196302.732 -17329830.110 10 0 59638 25200.00000 0 -16036908.145 -4734050.004 -19253993.415 10 0 59638 26100.00000 0 -13685321.267 -5498782.665 -20803902.631 10 0 59638 27000.00000 0 -11242032.684 -6495296.304 -21949466.474 10 0 59638 27900.00000 0 -8774078.209 -7716144.502 -22668459.755 10 0 59638 28800.00000 0 -6347083.971 -9141765.951 -22946951.892 10 0 59638 29700.00000 0 -4022721.324 -10741134.361 -22779573.960 10 0 59638 30600.00000 0 -1856340.785 -12472904.566 -22169619.527 10 0 59638 31500.00000 0 105117.197 -14287007.401 -21128977.610 10 0 59638 32400.00000 0 1824848.734 -16126627.172 -19677899.293 10 0 59638 33300.00000 0 3277479.508 -17930479.554 -17844602.547 10 0 59638 34200.00000 0 4449871.652 -19635294.964 -15664722.902 10 0 59638 35100.00000 0 5341412.296 -21178403.911 -13180620.483 10 0 59638 36000.00000 0 5963773.182 -22500316.327 -10440556.645 10 0 59638 36900.00000 0 6340152.853 -23547186.971 -7497756.153 10 0 59638 37800.00000 0 6504034.665 -24273063.675 -4409372.976 10 0 59638 38700.00000 0 6497514.179 -24641824.132 -1235379.789 10 0 59638 39600.00000 0 6369267.484 -24628719.891 1962597.037 10 0 59638 40500.00000 0 6172247.194 -24221462.706 5122474.208 10 0 59638 41400.00000 0 5961204.201 -23420807.504 8182916.591 10 0 59638 42300.00000 0 5790140.497 -22240607.407 11084526.935 10 0 59638 43200.00000 0 5709801.237 -20707338.337 13770997.073 10 0 59638 44100.00000 0 5765312.339 -18859112.908 16190198.314 10 0 59638 45000.00000 0 5994063.726 -16744224.653 18295189.938 10 0 59638 45900.00000 0 6423927.793 -14419283.043 20045126.623 10 0 59638 46800.00000 0 7071888.605 -11947016.687 21406047.647 10 0 59638 47700.00000 0 7943139.990 -9393835.749 22351533.000 10 0 59638 48600.00000 0 9030691.101 -6827254.373 22863214.234 10 0 59638 49500.00000 0 10315496.873 -4313279.494 22931130.505 10 0 59638 50400.00000 0 11767108.851 -1913873.816 22553923.153 10 0 59638 51300.00000 0 13344820.279 315402.583 21738865.062 10 0 59638 52200.00000 0 14999258.667 2327474.906 20501724.016 10 0 59638 53100.00000 0 16674360.289 4085474.773 18866462.269 10 0 59638 54000.00000 0 18309645.013 5564029.098 16864777.553 10 0 59638 54900.00000 0 19842697.030 6750063.784 14535493.684 10 0 59638 55800.00000 0 21211748.071 7643089.413 11923811.922 10 0 59638 56700.00000 0 22358255.087 8254957.778 9080436.956 10 0 59638 57600.00000 0 23229364.128 8609100.220 6060594.010 10 0 59638 58500.00000 0 23780156.591 8739280.551 2922955.990 10 0 59638 59400.00000 0 23975582.842 8687915.904 -271498.453 10 0 59638 60300.00000 0 23792001.149 8504037.207 -3460673.504 10 0 59638 61200.00000 0 23218256.361 8240976.327 -6582567.708 10 0 59638 62100.00000 0 22256252.177 7953878.617 -9576484.270 10 0 59638 63000.00000 0 20920992.172 7697147.038 -12384215.976 10 0 59638 63900.00000 0 19240087.307 7521926.917 -14951180.927 10 0 59638 64800.00000 0 17252750.089 7473738.594 -17227486.617 10 0 59638 65700.00000 0 15008317.254 7590358.840 -19168901.317 10 0 59638 66600.00000 0 12564362.590 7900041.197 -20737713.788 10 0 59638 67500.00000 0 9984478.645 8420150.956 -21903464.768 10 0 59638 68400.00000 0 7335819.657 9156272.813 -22643536.330 10 0 59638 69300.00000 0 4686507.971 10101829.217 -22943588.056 10 0 59638 70200.00000 0 2103011.500 11238225.888 -22797832.055 10 0 59638 71100.00000 0 -352399.205 12535518.810 -22209141.908 10 0 59638 72000.00000 0 -2624009.190 13953575.093 -21188993.737 10 0 59638 72900.00000 0 -4664735.499 15443679.417 -19757240.792 10 0 59638 73800.00000 0 -6437836.455 16950519.089 -17941725.957 10 0 59638 74700.00000 0 -7918183.827 18414464.804 -15777739.688 10 0 59638 75600.00000 0 -9093046.225 19774051.753 -13307333.731 10 0 59638 76500.00000 0 -9962352.456 20968557.220 -10578503.769 10 0 59638 77400.00000 0 -10538425.246 21940566.550 -7644256.767 10 0 59638 78300.00000 0 -10845197.970 22638419.775 -4561581.014 10 0 59638 79200.00000 0 -10916948.647 23018436.041 -1390338.858 10 0 59638 80100.00000 0 -10796605.719 23046822.148 1807896.176 10 0 59638 81000.00000 0 -10533698.085 22701184.803 4971035.148 10 0 59638 81900.00000 0 -10182036.801 21971582.721 8037678.941 10 0 59638 82800.00000 0 -9797227.015 20861074.052 10948309.280 10 0 59638 83700.00000 0 -9434115.751 19385735.819 13646442.351 10 0 59638 84600.00000 0 -9144283.684 17574154.058 16079722.657 10 0 59638 85500.00000 0 -8973687.014 15466405.604 18200935.973 99